• In Deutschland
  • Länderverzeichnis
  • Für 7 Tage
  • Wassertemperatur
  • Satellitenkarten
  • Wetterkarte
  • Widgets
  • user-avatar
    Anmelden

    Stündliche Wetter Villingen-Schwenningen

    Heute, 17 Oktober, Dienstag

    Zeit Temperatur Niederschläge Wind Luftdruck Luftfeuchtigkeit
    00:00 +12°C° 0 mm 1 m/S 706 mmHg 72%
    01:00 +12°C° 0 mm 1 m/S 706 mmHg 70%
    02:00 +11°C° 0 mm 1 m/S 706 mmHg 69%
    03:00 +11°C° 0 mm 1 m/S 705 mmHg 69%
    04:00 +11°C° 0 mm 1 m/S 705 mmHg 68%
    05:00 +11°C° 0 mm 1 m/S 705 mmHg 68%
    06:00 +10°C° 0 mm 1 m/S 705 mmHg 67%
    07:00 +10°C° 0 mm 1 m/S 705 mmHg 66%
    08:00 +12°C° 0 mm 1 m/S 705 mmHg 62%
    09:00 +15°C° 0 mm 1 m/S 705 mmHg 57%
    10:00 +18°C° 0 mm 1 m/S 706 mmHg 53%
    11:00 +20°C° 0 mm 1 m/S 706 mmHg 49%
    12:00 +19°C° 0 mm 0 m/S 705 mmHg 46%
    13:00 +20°C° 0 mm 0 m/S 705 mmHg 43%
    14:00 +20°C° 0 mm 0 m/S 705 mmHg 47%
    15:00 +19°C° 0 mm 0 m/S 704 mmHg 51%
    16:00 +19°C° 0 mm 0 m/S 704 mmHg 55%
    17:00 +16°C° 0 mm 0 m/S 703 mmHg 60%
    18:00 +14°C° 0 mm 0 m/S 703 mmHg 65%
    19:00 +12°C° 0 mm 0 m/S 702 mmHg 70%
    20:00 +11°C° 0 mm 0 m/S 702 mmHg 71%
    21:00 +11°C° 0 mm 0 m/S 702 mmHg 71%
    22:00 +12°C° 0 mm 1 m/S 702 mmHg 71%
    23:00 +11°C° 0 mm 1 m/S 702 mmHg 71%

    Morgen, 18 Oktober, Mittwoch

    Zeit Temperatur Niederschläge Wind Luftdruck Luftfeuchtigkeit
    00:00 +11°C° 0 mm 1 m/S 702 mmHg 70%
    01:00 +11°C° 0 mm 1 m/S 701 mmHg 70%
    02:00 +11°C° 0 mm 1 m/S 701 mmHg 69%
    03:00 +10°C° 0 mm 1 m/S 701 mmHg 69%
    04:00 +10°C° 0 mm 1 m/S 700 mmHg 69%
    05:00 +10°C° 0 mm 1 m/S 700 mmHg 68%
    06:00 +9°C° 0 mm 1 m/S 700 mmHg 68%
    07:00 +9°C° 0 mm 1 m/S 700 mmHg 68%
    08:00 +11°C° 0 mm 1 m/S 700 mmHg 63%
    09:00 +14°C° 0 mm 1 m/S 701 mmHg 58%
    10:00 +16°C° 0 mm 1 m/S 701 mmHg 54%
    11:00 +18°C° 0 mm 1 m/S 701 mmHg 51%
    12:00 +19°C° 0 mm 1 m/S 701 mmHg 48%
    13:00 +20°C° 0 mm 1 m/S 701 mmHg 45%
    14:00 +20°C° 0 mm 1 m/S 700 mmHg 49%
    15:00 +20°C° 0 mm 1 m/S 700 mmHg 53%
    16:00 +17°C° 0 mm 0 m/S 700 mmHg 57%
    17:00 +15°C° 0 mm 0 m/S 699 mmHg 62%
    18:00 +14°C° 0 mm 1 m/S 699 mmHg 68%
    19:00 +12°C° 0 mm 1 m/S 699 mmHg 73%
    20:00 +11°C° 0 mm 1 m/S 699 mmHg 75%
    21:00 +11°C° 0 mm 1 m/S 699 mmHg 76%
    22:00 +10°C° 0 mm 1 m/S 699 mmHg 78%
    23:00 +10°C° 0 mm 1 m/S 699 mmHg 78%

    übermorgen, 19 Oktober, Donnerstag

    Zeit Temperatur Niederschläge Wind Luftdruck Luftfeuchtigkeit
    00:00 +10°C° 0 mm 1 m/S 699 mmHg 79%
    01:00 +9°C° 0 mm 1 m/S 698 mmHg 80%
    02:00 +9°C° 0 mm 1 m/S 698 mmHg 79%
    03:00 +9°C° 0 mm 1 m/S 698 mmHg 79%
    04:00 +9°C° 0 mm 1 m/S 698 mmHg 79%
    05:00 +9°C° 0 mm 1 m/S 698 mmHg 78%
    06:00 +9°C° 0 mm 1 m/S 698 mmHg 78%
    07:00 +8°C° 0 mm 1 m/S 698 mmHg 77%
    08:00 +11°C° 0 mm 1 m/S 698 mmHg 71%
    09:00 +13°C° 0 mm 1 m/S 699 mmHg 65%
    10:00 +15°C° 0 mm 1 m/S 699 mmHg 59%
    11:00 +16°C° 0 mm 1 m/S 699 mmHg 56%
    12:00 +18°C° 0 mm 1 m/S 699 mmHg 54%
    13:00 +19°C° 0 mm 1 m/S 699 mmHg 51%
    14:00 +17°C° 0 mm 0 m/S 699 mmHg 54%
    15:00 +17°C° 0 mm 0 m/S 699 mmHg 58%
    16:00 +16°C° 0 mm 0 m/S 699 mmHg 62%
    17:00 +14°C° 0 mm 0 m/S 699 mmHg 65%
    18:00 +14°C° 0 mm 1 m/S 699 mmHg 69%
    19:00 +12°C° 0 mm 1 m/S 698 mmHg 73%
    20:00 +12°C° 0 mm 1 m/S 699 mmHg 72%
    21:00 +11°C° 0 mm 1 m/S 699 mmHg 72%
    22:00 +11°C° 0 mm 1 m/S 699 mmHg 71%
    23:00 +11°C° 0 mm 1 m/S 699 mmHg 71%

    20 Oktober, Freitag

    Zeit Temperatur Niederschläge Wind Luftdruck Luftfeuchtigkeit
    00:00 +11°C° 0 mm 1 m/S 699 mmHg 70%
    01:00 +11°C° 0 mm 1 m/S 699 mmHg 70%
    02:00 +10°C° 0 mm 1 m/S 699 mmHg 71%
    03:00 +10°C° 0 mm 1 m/S 699 mmHg 72%
    04:00 +10°C° 0 mm 1 m/S 699 mmHg 73%
    05:00 +10°C° 0,1 mm 1 m/S 699 mmHg 74%
    06:00 +10°C° 0,1 mm 1 m/S 699 mmHg 76%
    07:00 +9°C° 0,1 mm 2 m/S 699 mmHg 78%
    08:00 +12°C° 0,1 mm 2 m/S 700 mmHg 75%
    09:00 +13°C° 0,1 mm 2 m/S 700 mmHg 72%
    10:00 +13°C° 0,1 mm 3 m/S 700 mmHg 70%
    11:00 +16°C° 0 mm 3 m/S 701 mmHg 64%
    12:00 +17°C° 0 mm 3 m/S 701 mmHg 59%
    13:00 +18°C° 0 mm 4 m/S 701 mmHg 54%
    14:00 +18°C° 0 mm 3 m/S 701 mmHg 57%
    15:00 +18°C° 0 mm 3 m/S 700 mmHg 60%
    16:00 +18°C° 0 mm 2 m/S 700 mmHg 63%
    17:00 +16°C° 0 mm 2 m/S 700 mmHg 69%
    18:00 +14°C° 0 mm 1 m/S 700 mmHg 75%
    19:00 +12°C° 0 mm 1 m/S 700 mmHg 81%
    20:00 +12°C° 0 mm 1 m/S 701 mmHg 82%
    21:00 +12°C° 0 mm 1 m/S 701 mmHg 83%
    22:00 +10°C° 0 mm 2 m/S 701 mmHg 84%
    23:00 +10°C° 0 mm 2 m/S 701 mmHg 83%

    21 Oktober, Samstag

    Zeit Temperatur Niederschläge Wind Luftdruck Luftfeuchtigkeit
    00:00 +10°C° 0 mm 2 m/S 701 mmHg 82%
    01:00 +10°C° 0 mm 2 m/S 700 mmHg 81%
    02:00 +10°C° 0 mm 2 m/S 700 mmHg 80%
    03:00 +9°C° 0 mm 2 m/S 700 mmHg 79%
    04:00 +9°C° 0 mm 2 m/S 700 mmHg 78%
    05:00 +9°C° 0 mm 2 m/S 700 mmHg 78%
    06:00 +9°C° 0 mm 2 m/S 700 mmHg 79%
    07:00 +9°C° 0 mm 2 m/S 700 mmHg 79%
    08:00 +12°C° 0 mm 2 m/S 700 mmHg 73%
    09:00 +14°C° 0 mm 2 m/S 701 mmHg 68%
    10:00 +16°C° 0 mm 3 m/S 701 mmHg 62%
    11:00 +14°C° 0,4 mm 3 m/S 701 mmHg 67%
    12:00 +14°C° 0,4 mm 4 m/S 700 mmHg 72%
    13:00 +14°C° 0,4 mm 4 m/S 700 mmHg 78%
    14:00 +13°C° 0,9 mm 3 m/S 700 mmHg 82%
    15:00 +13°C° 0,9 mm 3 m/S 700 mmHg 86%
    16:00 +12°C° 0,9 mm 3 m/S 700 mmHg 90%
    17:00 +13°C° 0,9 mm 2 m/S 700 mmHg 92%
    18:00 +13°C° 0,9 mm 2 m/S 700 mmHg 93%
    19:00 +12°C° 0,9 mm 2 m/S 700 mmHg 94%
    20:00 +12°C° 2,1 mm 2 m/S 700 mmHg 94%
    21:00 +12°C° 2,1 mm 2 m/S 700 mmHg 94%
    22:00 +12°C° 2,1 mm 2 m/S 700 mmHg 95%
    23:00 +10°C° 1,3 mm 2 m/S 700 mmHg 95%

    22 Oktober, Sonntag

    Zeit Temperatur Niederschläge Wind Luftdruck Luftfeuchtigkeit
    00:00 +10°C° 1,3 mm 2 m/S 700 mmHg 94%
    01:00 +9°C° 1,3 mm 2 m/S 699 mmHg 94%
    02:00 +9°C° 1,9 mm 3 m/S 700 mmHg 94%
    03:00 +8°C° 1,9 mm 3 m/S 700 mmHg 93%
    04:00 +7°C° 1,9 mm 4 m/S 700 mmHg 93%
    05:00 +6°C° 0,3 mm 4 m/S 700 mmHg 93%
    06:00 +7°C° 0,3 mm 3 m/S 700 mmHg 92%
    07:00 +5°C° 0,3 mm 3 m/S 700 mmHg 92%
    08:00 +6°C° 0,1 mm 4 m/S 700 mmHg 89%
    09:00 +6°C° 0,1 mm 4 m/S 701 mmHg 85%
    10:00 +7°C° 0,1 mm 5 m/S 701 mmHg 82%
    11:00 +7°C° 0,2 mm 5 m/S 701 mmHg 79%
    12:00 +8°C° 0,2 mm 5 m/S 701 mmHg 75%
    13:00 +8°C° 0,2 mm 5 m/S 701 mmHg 72%
    14:00 +8°C° 0,2 mm 5 m/S 701 mmHg 73%
    15:00 +7°C° 0,2 mm 5 m/S 701 mmHg 73%
    16:00 +7°C° 0,2 mm 4 m/S 702 mmHg 74%
    17:00 +6°C° 0 mm 4 m/S 702 mmHg 78%
    18:00 +5°C° 0 mm 3 m/S 702 mmHg 81%
    19:00 +4°C° 0 mm 3 m/S 703 mmHg 85%
    20:00 +4°C° 0 mm 3 m/S 703 mmHg 85%
    21:00 +4°C° 0 mm 3 m/S 703 mmHg 85%
    22:00 +4°C° 0 mm 3 m/S 704 mmHg 85%
    23:00 +4°C° 0 mm 4 m/S 704 mmHg 85%
    Mehr zeigen